Flag for U.S.A. Weather past 2 weeks in Jackson, Mississippi, U.S.A.

Now
75 °F

Clear.


Feels Like: 74 °F
Forecast: 76 / 95 °F
Wind: No wind

Location: Hawkins Field

Current Time: Aug 21, 2014 at 8:02:06 AM

Latest Report: Aug 21, 2014 at 6:53 AM


Visibility: 10 mi

Pressure: 30.11 "Hg

Humidity: 88%

Dew point: 71 °F

Location of JacksonLocation

Historic Weather in Jackson — Graph

°F

Jackson temperature yesterday

Maximum temperature yesterday: 94 °F (at 4:53 PM)
Minimum temperature yesterday: 74 °F (at 6:53 AM)
Average temperature yesterday: 84 °F

Past Weeks' High & Low Weather Summary

 TemperatureHumidityPressure
High94 °F (Aug 6, 3:53 PM)94% (Aug 10, 3:00 AM)30.09 "Hg (Aug 10, 3:00 AM)
Low64 °F (Aug 14, 5:53 AM)39% (Aug 13, 2:53 PM)29.87 "Hg (Aug 19, 1:53 AM)
Average80 °F72%29.98 "Hg
* Reported Aug 6 5:53 AM — Aug 21 5:53 AM, Jackson, Weather by CustomWeather, © 2014

Note: Actual official high and low records may vary slightly from our data, if they occured in-between our weather recording intervals... More about our weather records

Advertising

Jackson weather history for previous 24 hours

 ConditionsComfort  
Time TempWeatherWind HumidityBarometerVisibility
5:53 AM
Aug 21
75 °FClear.No wind85%30.09 "Hg10 mi
4:53 AM76 °FClear.No wind82%30.07 "Hg10 mi
3:53 AM76 °FClear.3 mph85%30.07 "Hg10 mi
2:53 AM77 °FClear.3 mph82%30.06 "Hg10 mi
1:53 AM77 °FClear.3 mph85%30.06 "Hg10 mi
12:53 AM78 °FClear.3 mph82%30.05 "Hg10 mi
11:53 PM
Aug 20
80 °FClear.No wind79%30.06 "Hg10 mi
10:53 PM81 °FClear.7 mph77%30.06 "Hg10 mi
9:53 PM82 °FClear.No wind74%30.06 "Hg10 mi
8:53 PM83 °FClear.No wind70%30.02 "Hg10 mi
7:53 PM86 °FSunny.No wind63%30.00 "Hg10 mi
6:53 PM90 °FSunny.6 mph54%30.00 "Hg10 mi
5:53 PM92 °FPassing clouds.6 mph49%30.00 "Hg10 mi
4:53 PM94 °FScattered clouds.3 mph44%30.01 "Hg10 mi
3:53 PM93 °FSunny.5 mph46%30.01 "Hg10 mi
2:53 PM93 °FScattered clouds.6 mph47%30.02 "Hg10 mi
1:53 PM92 °FSunny.6 mph49%30.04 "Hg10 mi
12:53 PM91 °FSunny.6 mph49%30.06 "Hg10 mi
11:53 AM89 °FSunny.5 mph52%30.07 "Hg10 mi
10:53 AM87 °FSunny.6 mph57%30.07 "Hg10 mi
9:53 AM84 °FSunny.8 mph63%30.06 "Hg10 mi
8:53 AM82 °FSunny.5 mph70%30.05 "Hg10 mi
Weather by CustomWeather, © 2014

See weather overviewHow to use our weather pages